Regional Weather Roundup
Issued by NWS

Home | Current Version | Previous Version | Graphics & Text | Print | Product List | Glossary On
Versions: 1 2 3 4 5 6 7 8 9 10 11 12 13 14 15 16 17 18 19 20 21 22 23 24 25 26 27 28 29 30 31 32 33 34 35 36 37 38 39 40 41 42 43 44 45 46 47 48 49 50
000
ASUS43 KDMX 232301
RWRIA

WEATHER ROUNDUP FOR IOWA
NATIONAL WEATHER SERVICE DES MOINES IA
600 PM CDT SUN JUL 23 2017

NOTE: "FAIR" INDICATES FEW OR NO CLOUDS BELOW 12,000 FEET WITH NO
SIGNIFICANT WEATHER AND/OR OBSTRUCTIONS TO VISIBILITY.

* - THESE STATIONS ARE NOT NWS STATIONS...THUS NOT UNDER NWS
QUALITY CONTROL.  THEY ALSO DO NOT REPORT WEATHER SUCH
AS PRECIPITATION OR FOG.

IAZ001>003-012>014-020>022-031>034-043>046-240000-
   NORTHWEST IOWA

CITY           SKY/WX    TMP DP  RH WIND       PRES   REMARKS
CARROLL *      MOSUNNY   81  63  54 N14       29.94S HX  82
CHEROKEE *     PTSUNNY   80  59  48 N8G17     29.97S HX  81
DENISON *      SUNNY     81  61  50 N13       29.97S HX  81
ORANGE CITY *  MOSUNNY   79  61  53 N7        29.99S HX  80
SHELDON *      SUNNY     77  61  57 N13       29.98S
SIOUX CITY     SUNNY     84  58  40 N13       29.96S HX  83
SPENCER        MOSUNNY   77  58  51 N14       29.99S
STORM LAKE *     N/A     77  59  53 N8        29.98R
$$

IAZ055>058-069>071-079>083-090>094-240000-
   SOUTHWEST IOWA

CITY           SKY/WX    TMP DP  RH WIND       PRES   REMARKS
ATLANTIC *     SUNNY     82  63  51 N13G20    29.93F HX  83
AUDUBON *      SUNNY     82  63  51 NW12G21   29.96S HX  83
CLARINDA *     SUNNY     84  70  61 N13       29.93S HX  88
COUNCIL BLFS * SUNNY     84  63  48 N10       29.94F HX  85
CRESTON *      SUNNY     86  59  39 NW14      29.94S HX  85
HARLAN  *      SUNNY     82  64  54 N13       29.98S HX  84
LAMONI         SUNNY     90  62  39 N12       29.90R HX  90
RED OAK *      SUNNY     84  66  54 N10       29.93S HX  86
SHENANDOAH *   SUNNY     84  68  58 N10       29.93S HX  87
$$

IAZ047>049-059>061-072>074-084-240000-
   CENTRAL IOWA

CITY           SKY/WX    TMP DP  RH WIND       PRES   REMARKS
AMES           MOSUNNY   81  62  52 N16       29.92S HX  82
ANKENY *       SUNNY     82  59  44 N14       29.92S HX  82
BOONE *        MOSUNNY   81  61  50 N15G21    29.92S HX  81
CHARITON *     SUNNY     86  61  42 N13G20    29.89S HX  86
DES MOINES     MOSUNNY   85  60  42 NW14G21   29.90S HX  85
GRINNELL*      SUNNY     79  63  57 NW13      29.92S HX  80
KNOXVILLE *    SUNNY     84  63  48 N12G20    29.89S HX  85
MARSHALLTOWN   MOSUNNY   80  64  58 N10       29.91S HX  82
NEWTON *       SUNNY     81  63  54 N14       29.91S HX  82
PELLA *        SUNNY     85  60  43 N10G16    29.91S HX  84
$$

IAZ004>006-015-016-023>025-035-036-240000-
   NORTH CENTRAL IOWA

CITY           SKY/WX    TMP DP  RH WIND       PRES   REMARKS
ALGONA *       CLOUDY    75  61  60 N10G16    29.97S
CLARION *      MOSUNNY   75  63  64 NW12      29.95S
ESTHERVILLE    PTSUNNY   72  60  66 N12       29.98S
FORT DODGE *   MOSUNNY   77  59  53 N10       29.96S
MASON CITY     MOSUNNY   76  59  55 N17       29.96S
FOREST CITY *    N/A     73  59  60 N13       29.96S
WEBSTER CITY * MOSUNNY   79  61  53 N12G18    29.93R HX  80
IOWA FALLS *   PTSUNNY   78  62  57 NW12      29.94S
$$

IAZ007>011-017>019-026>030-037>042-050>054-066-240000-
   NORTHEAST IOWA

CITY           SKY/WX    TMP DP  RH WIND       PRES   REMARKS
CEDAR RAPIDS   SUNNY     80  62  54 N17       29.87S HX  81
CHARLES CITY * MOSUNNY   75  63  64 NW9G17    29.93S
DECORAH *      PTSUNNY   75  61  60 N14G23    29.90S
DUBUQUE        SUNNY     78  60  53 NW17      29.87R
MONTICELLO *   MOSUNNY   81  63  54 NW10G21   29.87R HX  82
OELWEIN *        N/A    N/A N/A N/A MISG        N/A
WATERLOO       MOSUNNY   78  60  53 NW14      29.90R
$$

IAZ064-065-067-068-078-240000-
   EAST CENTRAL IOWA

CITY           SKY/WX    TMP DP  RH WIND       PRES   REMARKS
DAVENPORT      SUNNY     81  63  54 NW12      29.86R HX  82
IOWA CITY      SUNNY     83  61  47 NW13      29.87F HX  83
MUSCATINE *    SUNNY     82  63  51 NW14      29.85S HX  83
QUAD CITIES    SUNNY     84  61  45 NW16G26   29.83R HX  84
$$

IAZ062-063-075>077-085>089-095>099-240000-
   SOUTHEAST IOWA

CITY           SKY/WX    TMP DP  RH WIND       PRES   REMARKS
BURLINGTON     SUNNY     86  68  54 N9G20     29.84R HX  89
FAIRFIELD *    SUNNY     84  61  45 N16       29.87R HX  84
FORT MADISON * SUNNY     88  64  45 NW14G20   29.85R HX  89
KEOKUK *       SUNNY     90  63  40 N13G23    29.83R HX  90
OSKALOOSA *      N/A     83  62  48 N9G18     29.89S HX  83
OTTUMWA        SUNNY     87  61  41 N16       29.88R HX  87
WASHINGTON *   SUNNY     82  64  54 NW16G22   29.88S HX  84
$$

ABBREVIATIONS USED IN REMARKS
   TC - TEMPERATURES IN CELSIUS
  WCI - WIND CHILL INDEX
   HX - HEAT INDEX
  VSB - VISIBILITY
$$





USA.gov is the U.S. government's official web portal to all federal, state and local government web resources and services.